Martinsburg, WV

8:57 AM EDT on October 01, 2016 (GMT -0400)
Eastern W Va Regional-Shepherd

Weather History for KMRB - August, 2013

Change the Weather History Date:

Friday, August 2, 2013

  Actual Average Record
Temperature  
Mean Temperature 73 °F 74 °F  
Max Temperature 85 °F 85 °F 103 °F (1991)
Min Temperature 61 °F 63 °F 51 °F (1992)
Degree Days  
Heating Degree Days 0 0  
Month to date heating degree days 0 0  
Since 1 June heating degree days 2 25  
Since 1 July heating degree days 0 1  
Cooling Degree Days 8 9  
Month to date cooling degree days 19 18  
Year to date cooling degree days 717 561  
Since 1 June cooling degree days 606 504  
Growing Degree Days 22 (Base 50)    
Moisture  
Dew Point 59 °F    
Average Humidity 64    
Maximum Humidity 93    
Minimum Humidity 34    
Precipitation  
Precipitation 0.00 in 0.11 in 3.00 in (1946)
Month to date precipitation 0.17 0.22  
Year to date precipitation 18.57 23.38  
Sea Level Pressure  
Sea Level Pressure 29.94 in    
Wind  
Wind Speed 7 mph (SW)    
Max Wind Speed 18 mph    
Max Gust Speed 24 mph    
Visibility 9 miles    
Events      
T = Trace of Precipitation, MM = Missing Value Source: NWS Daily Summary

Daily Weather History Graph

Daily Weather History Graph

Search for Another Location

Airport or City:

Trip Planner

Search our weather history database for the weather conditions in past years. The results will help you decide how hot, cold, wet, or windy it might be!

Date:

Astronomy

Aug. 02, 2013 Rise Set
Actual Time 6:12 AM EDT 8:22 PM EDT
Civil Twilight 5:42 AM EDT 8:52 PM EDT
Nautical Twilight 5:06 AM EDT 9:29 PM EDT
Astronomical Twilight 4:26 AM EDT 10:08 PM EDT
Moon 2:32 AM EDT (8/2) 5:18 PM EDT (8/2)
Length of Visible Light 15h 09m
Length of Day
14h 10m
Waning Crescent, 16% of the Moon is Illuminated
Aug 2
Waning Crescent
Aug 6
New
Aug 14
First Quarter
Aug 20
Full
Aug 28
Last Quarter

Hourly Weather History & Observations

Time (EDT) Temp. Heat Index Dew Point Humidity Pressure Visibility Wind Dir Wind Speed Gust Speed Precip Events Conditions
12:53 AM 66.9 °F - 63.0 °F 87% 29.89 in 10.0 mi SSW 4.6 mph - N/A   Clear
1:53 AM 66.9 °F - 63.0 °F 87% 29.89 in 10.0 mi South 3.5 mph - N/A   Clear
2:53 AM 64.9 °F - 62.1 °F 90% 29.89 in 10.0 mi South 3.5 mph - N/A   Clear
3:53 AM 64.0 °F - 62.1 °F 93% 29.90 in 8.0 mi SW 4.6 mph - N/A   Clear
4:53 AM 64.0 °F - 61.0 °F 90% 29.91 in 9.0 mi South 3.5 mph - N/A   Clear
5:53 AM 64.0 °F - 61.0 °F 90% 29.92 in 9.0 mi South 3.5 mph - N/A   Clear
6:33 AM 62.6 °F - 60.8 °F 94% 29.94 in 2.0 mi Calm Calm - N/A   Clear
6:42 AM 60.8 °F - 60.8 °F 100% 29.94 in 4.0 mi Calm Calm - 0.01 in   Clear
6:53 AM 62.1 °F - 60.1 °F 93% 29.94 in 3.0 mi Calm Calm - 0.01 in   Clear
7:53 AM 69.1 °F - 63.0 °F 81% 29.96 in 10.0 mi WSW 3.5 mph - N/A   Clear
8:53 AM 72.0 °F - 63.0 °F 73% 29.97 in 10.0 mi South 5.8 mph - N/A   Clear
9:53 AM 75.0 °F - 62.1 °F 64% 29.96 in 10.0 mi WSW 6.9 mph - N/A   Clear
10:53 AM 75.9 °F - 61.0 °F 60% 29.97 in 10.0 mi SW 6.9 mph - N/A   Scattered Clouds
11:53 AM 78.1 °F - 59.0 °F 52% 29.97 in 10.0 mi West 8.1 mph - N/A   Scattered Clouds
12:53 PM 81.0 °F 81.1 °F 57.9 °F 45% 29.97 in 10.0 mi West 12.7 mph - N/A   Clear
1:53 PM 84.0 °F 83.5 °F 57.9 °F 41% 29.96 in 10.0 mi West 11.5 mph 18.4 mph N/A   Clear
2:53 PM 84.9 °F 83.6 °F 55.0 °F 36% 29.96 in 10.0 mi West 13.8 mph - N/A   Clear
3:53 PM 82.9 °F 82.0 °F 55.0 °F 38% 29.95 in 10.0 mi West 11.5 mph - N/A   Partly Cloudy
4:53 PM 84.9 °F 83.2 °F 53.1 °F 33% 29.94 in 10.0 mi West 12.7 mph - N/A   Clear
5:53 PM 84.0 °F 82.6 °F 54.0 °F 35% 29.93 in 10.0 mi West 11.5 mph - N/A   Clear
6:53 PM 82.0 °F 81.4 °F 55.0 °F 39% 29.93 in 10.0 mi West 12.7 mph - N/A   Clear
7:53 PM 78.1 °F - 55.0 °F 45% 29.94 in 10.0 mi West 8.1 mph - N/A   Clear
8:53 PM 73.9 °F - 57.0 °F 55% 29.95 in 10.0 mi SSW 3.5 mph - N/A   Clear
9:53 PM 72.0 °F - 57.0 °F 59% 29.96 in 10.0 mi SSW 4.6 mph - N/A   Clear
10:53 PM 66.9 °F - 57.9 °F 73% 29.97 in 10.0 mi SSW 3.5 mph - N/A   Clear
11:53 PM 69.1 °F - 57.9 °F 68% 29.97 in 10.0 mi WSW 3.5 mph - N/A   Clear